| time (UTC) | temp F | wind direction | speed MPH | gust MPH | rain 1hr in | rain 24hr in | rain mn in | humidity % | barometer mb |
| 20260505223409 | 64 | 315 | 4.0 | 5.0 | 0.00 | 0.02 | 0.02 | 73 | 1006.0 |
| 20260505222323 | 65 | 315 | 3.0 | 4.0 | 0.00 | 0.02 | 0.02 | 70 | 1006.2 |
| 20260505221356 | 65 | 315 | 6.0 | 10.0 | 0.00 | 0.02 | 0.02 | 70 | 1006.5 |
| 20260505220516 | 65 | 324 | 6.0 | 15.0 | 0.00 | 0.02 | 0.02 | 70 | 1006.5 |
| 20260505215611 | 66 | 315 | 7.0 | 13.0 | 0.01 | 0.02 | 0.02 | 68 | 1006.3 |
| 20260505214809 | 67 | 315 | 7.0 | 12.0 | 0.01 | 0.02 | 0.02 | 64 | 1006.3 |
| 20260505213517 | 67 | 329 | 9.0 | 19.0 | 0.01 | 0.02 | 0.02 | 61 | 1005.8 |
| 20260505212908 | 68 | 315 | 6.0 | 11.0 | 0.01 | 0.02 | 0.02 | 59 | 1005.3 |
| 20260505212016 | 68 | 315 | 8.0 | 17.0 | 0.01 | 0.02 | 0.02 | 58 | 1005.1 |
| 20260505211320 | 70 | 0 | 9.0 | 17.0 | 0.01 | 0.02 | 0.02 | 56 | 1005.3 |
| 20260505210411 | 72 | 315 | 9.0 | 25.0 | 0.01 | 0.02 | 0.02 | 50 | 1005.3 |
| 20260505205537 | 73 | 318 | 13.0 | 28.0 | 0.00 | 0.01 | 0.01 | 49 | 1005.0 |
| 20260505204545 | 76 | 315 | 5.0 | 22.0 | 0.00 | 0.01 | 0.01 | 47 | 1004.4 |
| 20260505203848 | 77 | 315 | 3.0 | 7.0 | 0.00 | 0.01 | 0.01 | 47 | 1004.0 |
| 20260505202517 | 77 | 332 | 3.0 | 10.0 | 0.00 | 0.01 | 0.01 | 49 | 1004.0 |
| 20260505201908 | 76 | 0 | 1.0 | 2.0 | 0.00 | 0.01 | 0.01 | 52 | 1004.0 |
| 20260505201016 | 75 | 323 | 2.0 | 6.0 | 0.00 | 0.01 | 0.01 | 52 | 1004.0 |
| 20260505200414 | 75 | 270 | 2.0 | 1.0 | 0.00 | 0.01 | 0.01 | 52 | 1004.2 |
| 20260505195516 | 75 | 321 | 1.0 | 10.0 | 0.00 | 0.01 | 0.01 | 50 | 1004.3 |
| 20260505194515 | 77 | 327 | 3.0 | 15.0 | 0.00 | 0.01 | 0.01 | 47 | 1004.4 |
| 20260505193650 | 80 | 45 | 6.0 | 11.0 | 0.00 | 0.01 | 0.01 | 38 | 1004.2 |
| 20260505192823 | 82 | 0 | 5.0 | 16.0 | 0.00 | 0.01 | 0.01 | 30 | 1003.7 |
| 20260505192016 | 82 | 314 | 6.0 | 14.0 | 0.00 | 0.01 | 0.01 | 30 | 1003.6 |
| 20260505191321 | 83 | 23 | 4.0 | 6.0 | 0.00 | 0.01 | 0.01 | 30 | 1003.6 |
| 20260505190335 | 83 | 0 | 5.0 | 13.0 | 0.00 | 0.01 | 0.01 | 29 | 1003.7 |
| 20260505185319 | 84 | 315 | 5.0 | 19.0 | 0.00 | 0.01 | 0.01 | 28 | 1003.8 |
| 20260505184330 | 84 | 180 | 4.0 | 4.0 | 0.00 | 0.01 | 0.01 | 30 | 1003.8 |
| 20260505183116 | 84 | 270 | 4.0 | 14.0 | 0.00 | 0.01 | 0.01 | 29 | 1004.0 |
| 20260505182517 | 84 | 327 | 4.0 | 11.0 | 0.00 | 0.01 | 0.01 | 30 | 1004.0 |
| 20260505181829 | 85 | 315 | 3.0 | 4.0 | 0.00 | 0.01 | 0.01 | 29 | 1004.0 |
| 20260505180819 | 85 | 0 | 4.0 | 7.0 | 0.00 | 0.01 | 0.01 | 30 | 1004.0 |
| 20260505175558 | 85 | 23 | 5.0 | 11.0 | 0.00 | 0.01 | 0.01 | 29 | 1004.2 |
| 20260505175016 | 85 | 317 | 6.0 | 18.0 | 0.00 | 0.01 | 0.01 | 29 | 1004.2 |
| 20260505174015 | 85 | 320 | 7.0 | 16.0 | 0.00 | 0.01 | 0.01 | 29 | 1004.3 |
| 20260505173359 | 86 | 270 | 4.0 | 9.0 | 0.00 | 0.01 | 0.01 | 29 | 1004.4 |
| 20260505172516 | 86 | 276 | 5.0 | 12.0 | 0.00 | 0.01 | 0.01 | 29 | 1004.5 |
| 20260505171516 | 86 | 270 | 7.0 | 21.0 | 0.00 | 0.01 | 0.01 | 28 | 1004.6 |
| 20260505170537 | 86 | 330 | 5.0 | 20.0 | 0.00 | 0.01 | 0.01 | 30 | 1004.7 |
| 20260505165820 | 85 | 180 | 3.0 | 9.0 | 0.00 | 0.01 | 0.01 | 32 | 1005.0 |
| 20260505164516 | 82 | 293 | 4.0 | 19.0 | 0.00 | 0.01 | 0.01 | 34 | 1005.0 |
| 20260505163546 | 82 | 180 | 4.0 | 5.0 | 0.00 | 0.01 | 0.01 | 34 | 1005.1 |
| 20260505162854 | 82 | 203 | 4.0 | 11.0 | 0.00 | 0.01 | 0.01 | 34 | 1005.3 |
| 20260505161826 | 81 | 180 | 3.0 | 18.0 | 0.00 | 0.01 | 0.01 | 34 | 1005.5 |
| 20260505160614 | 80 | 225 | 4.0 | 11.0 | 0.00 | 0.01 | 0.01 | 36 | 1005.7 |
| 20260505152516 | 79 | 24 | 1.0 | 4.0 | 0.00 | 0.01 | 0.01 | 45 | 1006.3 |
| 20260505151842 | 79 | 180 | 2.0 | 4.0 | 0.00 | 0.01 | 0.01 | 48 | 1006.4 |
| 20260505150809 | 77 | 90 | 2.0 | 5.0 | 0.00 | 0.01 | 0.01 | 49 | 1006.5 |
| 20260505140413 | 70 | 45 | 1.0 | 2.0 | 0.00 | 0.01 | 0.01 | 54 | 1007.5 |
| 20260505124036 | 65 | 99 | 3.0 | 4.0 | 0.00 | 0.01 | 0.01 | 59 | 1007.2 |
| 20260505123422 | 63 | 225 | 3.0 | 6.0 | 0.00 | 0.01 | 0.01 | 59 | 1007.3 |
| 20260505122319 | 62 | 90 | 3.0 | 4.0 | 0.00 | 0.01 | 0.01 | 60 | 1007.3 |
| 20260505121341 | 61 | 0 | 2.0 | 7.0 | 0.00 | 0.01 | 0.01 | 61 | 1007.3 |
| 20260505120037 | 60 | 105 | 3.0 | 6.0 | 0.00 | 0.01 | 0.01 | 63 | 1007.4 |
| 20260505115036 | 59 | 109 | 3.0 | 7.0 | 0.00 | 0.01 | 0.01 | 65 | 1007.4 |
| 20260505114411 | 58 | 90 | 2.0 | 2.0 | 0.00 | 0.01 | 0.01 | 67 | 1007.3 |
| 20260505113537 | 57 | 96 | 2.0 | 6.0 | 0.00 | 0.01 | 0.01 | 68 | 1007.3 |
| 20260505112536 | 56 | 121 | 2.0 | 4.0 | 0.00 | 0.01 | 0.01 | 71 | 1007.2 |
| 20260505111827 | 54 | 90 | 1.0 | 4.0 | 0.00 | 0.01 | 0.01 | 73 | 1007.1 |
| 20260505110908 | 54 | 180 | 1.0 | 3.0 | 0.01 | 0.01 | 0.01 | 74 | 1007.1 |
| 20260505101556 | 55 | 216 | 1.0 | 3.0 | 0.01 | 0.01 | 0.01 | 69 | 1007.1 |
| 20260505100854 | 55 | 135 | 2.0 | 6.0 | 0.00 | 0.00 | 0.00 | 66 | 1007.0 |
| 20260505095516 | 55 | 128 | 2.0 | 7.0 | 0.00 | 0.00 | 0.00 | 63 | 1007.0 |
| 20260505094516 | 55 | 127 | 2.0 | 5.0 | 0.00 | 0.00 | 0.00 | 59 | 1007.0 |
| 20260505093517 | 55 | 354 | 0.0 | 2.0 | 0.00 | 0.00 | 0.00 | 58 | 1006.8 |
| 20260505092929 | 55 | 90 | 1.0 | 3.0 | 0.00 | 0.00 | 0.00 | 57 | 1006.7 |
| 20260505091839 | 55 | 45 | 1.0 | 1.0 | 0.00 | 0.00 | 0.00 | 58 | 1006.6 |
| 20260505091016 | 55 | 119 | 1.0 | 3.0 | 0.00 | 0.00 | 0.00 | 58 | 1006.6 |
| 20260505090408 | 55 | 90 | 1.0 | 4.0 | 0.00 | 0.00 | 0.00 | 58 | 1006.6 |
| 20260505085516 | 56 | 101 | 1.0 | 3.0 | 0.00 | 0.00 | 0.00 | 57 | 1006.7 |
| 20260505084909 | 56 | 135 | 1.0 | 3.0 | 0.00 | 0.00 | 0.00 | 57 | 1006.8 |
| 20260505083554 | 57 | 90 | 1.0 | 2.0 | 0.00 | 0.00 | 0.00 | 55 | 1006.8 |
| 20260505083016 | 57 | 108 | 1.0 | 5.0 | 0.00 | 0.00 | 0.00 | 56 | 1006.9 |
| 20260505082112 | 57 | 90 | 1.0 | 1.0 | 0.00 | 0.00 | 0.00 | 55 | 1006.9 |
| 20260505081309 | 57 | 135 | 1.0 | 1.0 | 0.00 | 0.00 | 0.00 | 55 | 1006.8 |
| 20260505080324 | 57 | 90 | 1.0 | 1.0 | 0.00 | 0.00 | 0.00 | 55 | 1006.8 |
| 20260505075421 | 57 | 135 | 1.0 | 3.0 | 0.00 | 0.00 | 0.00 | 55 | 1006.7 |
| 20260505074517 | 57 | 250 | 1.0 | 6.0 | 0.00 | 0.00 | 0.00 | 56 | 1006.6 |
| 20260505073519 | 57 | 192 | 2.0 | 6.0 | 0.00 | 0.00 | 0.00 | 56 | 1006.6 |
| 20260505072549 | 57 | 45 | 1.0 | 2.0 | 0.00 | 0.00 | 0.00 | 55 | 1006.6 |
| 20260505071809 | 57 | 0 | 2.0 | 3.0 | 0.00 | 0.00 | 0.00 | 56 | 1006.5 |
| 20260505071036 | 57 | 178 | 2.0 | 5.0 | 0.00 | 0.00 | 0.00 | 56 | 1006.5 |
| 20260505070049 | 57 | 180 | 2.0 | 2.0 | 0.00 | 0.00 | 0.00 | 55 | 1006.5 |
| 20260505065517 | 57 | 168 | 2.0 | 6.0 | 0.00 | 0.00 | 0.00 | 56 | 1006.5 |
| 20260505064610 | 56 | 135 | 2.0 | 6.0 | 0.00 | 0.00 | 0.00 | 57 | 1006.5 |
| 20260505064015 | 56 | 130 | 2.0 | 6.0 | 0.00 | 0.00 | 0.00 | 57 | 1006.6 |
| 20260505063309 | 56 | 135 | 1.0 | 6.0 | 0.00 | 0.00 | 0.00 | 56 | 1006.7 |
| 20260505062516 | 56 | 169 | 2.0 | 5.0 | 0.00 | 0.00 | 0.00 | 56 | 1006.7 |
| 20260505061929 | 57 | 0 | 1.0 | 3.0 | 0.00 | 0.00 | 0.00 | 54 | 1006.7 |
| 20260505061017 | 56 | 143 | 2.0 | 7.0 | 0.00 | 0.00 | 0.00 | 55 | 1006.8 |
| 20260505060400 | 57 | 90 | 2.0 | 4.0 | 0.00 | 0.00 | 0.00 | 55 | 1006.7 |
| 20260505055342 | 57 | 225 | 2.0 | 2.0 | 0.00 | 0.00 | 0.00 | 54 | 1006.7 |
| 20260505054516 | 57 | 159 | 2.0 | 5.0 | 0.00 | 0.00 | 0.00 | 54 | 1006.7 |
| 20260505053933 | 57 | 180 | 1.0 | 5.0 | 0.00 | 0.00 | 0.00 | 54 | 1006.8 |
| 20260505053016 | 57 | 169 | 1.0 | 4.0 | 0.00 | 0.00 | 0.00 | 53 | 1006.7 |
| 20260505052408 | 57 | 180 | 1.0 | 4.0 | 0.00 | 0.00 | 0.00 | 53 | 1006.7 |
| 20260505051517 | 57 | 160 | 1.0 | 5.0 | 0.00 | 0.00 | 0.00 | 53 | 1006.7 |
| 20260505050808 | 57 | 180 | 1.0 | 1.0 | 0.00 | 0.00 | 0.00 | 52 | 1006.6 |
| 20260505041017 | 57 | 200 | 1.0 | 3.0 | 0.00 | 0.00 | 0.00 | 50 | 1006.4 |
| 20260505040016 | 57 | 183 | 1.0 | 2.0 | 0.00 | 0.00 | 0.00 | 49 | 1006.3 |
| 20260505035016 | 57 | 134 | 1.0 | 2.0 | 0.00 | 0.00 | 0.00 | 50 | 1006.2 |
| 20260505034416 | 58 | 0.0 | 0.0 | 0.00 | 0.00 | 0.00 | 48 | 1006.2 | |
| 20260505033536 | 58 | 180 | 0.0 | 1.0 | 0.00 | 0.00 | 0.00 | 48 | 1006.2 |
| 20260505032821 | 58 | 180 | 1.0 | 1.0 | 0.00 | 0.00 | 0.00 | 49 | 1006.2 |
| 20260505031516 | 58 | 255 | 1.0 | 2.0 | 0.00 | 0.00 | 0.00 | 49 | 1006.2 |
| 20260505030829 | 58 | 180 | 1.0 | 1.0 | 0.00 | 0.00 | 0.00 | 48 | 1006.2 |
| 20260505025821 | 58 | 180 | 1.0 | 2.0 | 0.00 | 0.00 | 0.00 | 48 | 1006.3 |
| 20260505024826 | 59 | 45 | 1.0 | 1.0 | 0.00 | 0.00 | 0.00 | 47 | 1006.3 |
| 20260505024017 | 58 | 45 | 1.0 | 2.0 | 0.00 | 0.00 | 0.00 | 46 | 1006.2 |
| 20260505023323 | 59 | 0.0 | 1.0 | 0.00 | 0.00 | 0.00 | 46 | 1006.4 | |
| 20260505022037 | 59 | 180 | 0.0 | 2.0 | 0.00 | 0.00 | 0.00 | 46 | 1006.4 |
| 20260505021323 | 59 | 180 | 1.0 | 1.0 | 0.00 | 0.00 | 0.00 | 47 | 1006.5 |
| 20260505020311 | 60 | 180 | 1.0 | 2.0 | 0.00 | 0.00 | 0.00 | 45 | 1006.4 |
| 20260505015516 | 60 | 172 | 1.0 | 2.0 | 0.00 | 0.00 | 0.00 | 45 | 1006.4 |
| 20260505014908 | 60 | 270 | 1.0 | 1.0 | 0.00 | 0.00 | 0.00 | 44 | 1006.4 |
| 20260505014016 | 61 | 270 | 1.0 | 1.0 | 0.00 | 0.00 | 0.00 | 44 | 1006.3 |
| 20260505013017 | 61 | 270 | 0.0 | 2.0 | 0.00 | 0.00 | 0.00 | 44 | 1006.2 |
| 20260505012206 | 62 | 270 | 1.0 | 2.0 | 0.00 | 0.00 | 0.00 | 44 | 1006.1 |
| 20260505011319 | 62 | 225 | 1.0 | 1.0 | 0.00 | 0.00 | 0.00 | 43 | 1006.0 |
| 20260505010516 | 62 | 206 | 1.0 | 2.0 | 0.00 | 0.00 | 0.00 | 43 | 1006.0 |
| 20260505005656 | 63 | 180 | 1.0 | 2.0 | 0.00 | 0.00 | 0.00 | 42 | 1006.0 |
| 20260505005015 | 63 | 180 | 1.0 | 2.0 | 0.00 | 0.00 | 0.00 | 41 | 1006.0 |
| 20260505004309 | 64 | 180 | 1.0 | 2.0 | 0.00 | 0.00 | 0.00 | 41 | 1005.9 |
| 20260505003016 | 65 | 180 | 1.0 | 2.0 | 0.00 | 0.00 | 0.00 | 39 | 1005.9 |
| 20260505002044 | 66 | 180 | 1.0 | 2.0 | 0.00 | 0.00 | 0.00 | 38 | 1005.9 |
| 20260505001515 | 66 | 180 | 1.0 | 2.0 | 0.00 | 0.00 | 0.00 | 38 | 1005.8 |
| 20260505000820 | 68 | 225 | 1.0 | 1.0 | 0.00 | 0.00 | 0.00 | 37 | 1005.8 |
| 20260504235516 | 69 | 200 | 1.0 | 2.0 | 0.00 | 0.00 | 0.00 | 36 | 1005.6 |
| 20260504234840 | 71 | 180 | 1.0 | 1.0 | 0.00 | 0.00 | 0.00 | 35 | 1005.5 |
| 20260504234016 | 71 | 181 | 1.0 | 2.0 | 0.00 | 0.00 | 0.00 | 34 | 1005.3 |
| 20260504233016 | 73 | 180 | 1.0 | 1.0 | 0.00 | 0.00 | 0.00 | 33 | 1005.3 |
| 20260504232321 | 74 | 135 | 1.0 | 4.0 | 0.00 | 0.00 | 0.00 | 31 | 1005.3 |
| 20260504231517 | 74 | 320 | 1.0 | 5.0 | 0.00 | 0.00 | 0.00 | 32 | 1005.2 |
| 20260504230901 | 74 | 225 | 2.0 | 3.0 | 0.00 | 0.00 | 0.00 | 31 | 1005.1 |
| 20260504225917 | 73 | 180 | 2.0 | 7.0 | 0.00 | 0.00 | 0.00 | 31 | 1005.0 |
| 20260504224905 | 73 | 225 | 2.0 | 3.0 | 0.00 | 0.00 | 0.00 | 32 | 1004.9 |